Hourly Weather Klavdiyevo-Tarasove

Today, 2 August, Monday

Time Temperature Precipitation Wind Pressure Humidity
00:00 +23°C° 0 mm 1 mps 741 mmHg 80%
01:00 +23°C° 0 mm 1 mps 741 mmHg 81%
02:00 +21°C° 0 mm 2 mps 740 mmHg 85%
03:00 +21°C° 0 mm 2 mps 740 mmHg 86%
04:00 +21°C° 0 mm 3 mps 740 mmHg 86%
05:00 +21°C° 0 mm 3 mps 740 mmHg 86%
06:00 +22°C° 0 mm 4 mps 739 mmHg 79%
07:00 +25°C° 0 mm 4 mps 739 mmHg 71%
08:00 +26°C° 0 mm 5 mps 739 mmHg 64%
09:00 +28°C° 0 mm 5 mps 739 mmHg 57%
10:00 +30°C° 0 mm 5 mps 740 mmHg 51%
11:00 +33°C° 0 mm 6 mps 740 mmHg 44%
12:00 +32°C° 0 mm 7 mps 740 mmHg 46%
13:00 +30°C° 0 mm 7 mps 740 mmHg 47%
14:00 +29°C° 0 mm 8 mps 741 mmHg 48%
15:00 +29°C° 0.1 mm 7 mps 741 mmHg 50%
16:00 +28°C° 0.1 mm 7 mps 741 mmHg 52%
17:00 +28°C° 0.1 mm 6 mps 740 mmHg 53%
18:00 +26°C° 0 mm 5 mps 741 mmHg 59%
19:00 +23°C° 0 mm 5 mps 742 mmHg 65%
20:00 +21°C° 0 mm 4 mps 742 mmHg 71%
21:00 +20°C° 0 mm 4 mps 743 mmHg 74%
22:00 +19°C° 0 mm 4 mps 743 mmHg 77%
23:00 +18°C° 0 mm 3 mps 743 mmHg 80%

Tomorrow, 3 August, Tuesday

Time Temperature Precipitation Wind Pressure Humidity
00:00 +17°C° 0 mm 3 mps 743 mmHg 81%
01:00 +17°C° 0 mm 3 mps 744 mmHg 83%
02:00 +16°C° 0 mm 3 mps 744 mmHg 84%
03:00 +16°C° 0 mm 3 mps 744 mmHg 85%
04:00 +15°C° 0 mm 2 mps 744 mmHg 86%
05:00 +15°C° 0 mm 2 mps 745 mmHg 88%
06:00 +17°C° 0 mm 2 mps 745 mmHg 81%
07:00 +19°C° 0 mm 3 mps 745 mmHg 73%
08:00 +20°C° 0 mm 3 mps 746 mmHg 66%
09:00 +22°C° 0 mm 3 mps 746 mmHg 60%
10:00 +24°C° 0 mm 3 mps 746 mmHg 54%
11:00 +25°C° 0 mm 3 mps 746 mmHg 48%
12:00 +26°C° 0 mm 3 mps 746 mmHg 44%
13:00 +27°C° 0 mm 3 mps 746 mmHg 41%
14:00 +28°C° 0 mm 3 mps 745 mmHg 38%
15:00 +27°C° 0 mm 3 mps 745 mmHg 41%
16:00 +26°C° 0 mm 3 mps 745 mmHg 45%
17:00 +25°C° 0 mm 3 mps 745 mmHg 48%
18:00 +24°C° 0 mm 3 mps 746 mmHg 51%
19:00 +23°C° 0 mm 2 mps 746 mmHg 55%
20:00 +21°C° 0 mm 2 mps 746 mmHg 58%
21:00 +21°C° 0 mm 1 mps 746 mmHg 60%
22:00 +21°C° 0 mm 1 mps 747 mmHg 62%
23:00 +20°C° 0 mm 1 mps 747 mmHg 64%

Day after tomorrow, 4 August, Wednesday

Time Temperature Precipitation Wind Pressure Humidity
00:00 +20°C° 0 mm 1 mps 747 mmHg 64%
01:00 +20°C° 0 mm 1 mps 747 mmHg 64%
02:00 +19°C° 0 mm 1 mps 747 mmHg 65%
03:00 +19°C° 0 mm 1 mps 747 mmHg 67%
04:00 +19°C° 0 mm 1 mps 747 mmHg 69%
05:00 +18°C° 0 mm 1 mps 747 mmHg 71%
06:00 +20°C° 0 mm 1 mps 747 mmHg 66%
07:00 +19°C° 0 mm 0 mps 748 mmHg 60%
08:00 +21°C° 0 mm 0 mps 748 mmHg 55%
09:00 +25°C° 0 mm 1 mps 748 mmHg 50%
10:00 +26°C° 0 mm 1 mps 748 mmHg 46%
11:00 +27°C° 0 mm 2 mps 748 mmHg 41%
12:00 +28°C° 0 mm 2 mps 747 mmHg 41%
13:00 +28°C° 0 mm 2 mps 747 mmHg 40%
14:00 +28°C° 0 mm 2 mps 747 mmHg 40%
15:00 +25°C° 1.2 mm 3 mps 747 mmHg 56%
16:00 +21°C° 1.2 mm 3 mps 747 mmHg 73%
17:00 +18°C° 1.2 mm 4 mps 747 mmHg 89%
18:00 +18°C° 0.5 mm 3 mps 747 mmHg 91%
19:00 +18°C° 0.5 mm 3 mps 747 mmHg 93%
20:00 +17°C° 0.5 mm 2 mps 747 mmHg 95%
21:00 +17°C° 0 mm 2 mps 747 mmHg 95%
22:00 +17°C° 0 mm 2 mps 747 mmHg 95%
23:00 +18°C° 0 mm 1 mps 747 mmHg 95%

5 August, Thursday

Time Temperature Precipitation Wind Pressure Humidity
00:00 +17°C° 0 mm 2 mps 747 mmHg 94%
01:00 +17°C° 0 mm 2 mps 747 mmHg 94%
02:00 +17°C° 0 mm 2 mps 747 mmHg 94%
03:00 +17°C° 0 mm 2 mps 746 mmHg 94%
04:00 +17°C° 0 mm 2 mps 746 mmHg 93%
05:00 +18°C° 0 mm 1 mps 746 mmHg 93%
06:00 +18°C° 0 mm 2 mps 746 mmHg 87%
07:00 +20°C° 0 mm 2 mps 746 mmHg 82%
08:00 +21°C° 0 mm 2 mps 746 mmHg 76%
09:00 +22°C° 0.2 mm 3 mps 746 mmHg 71%
10:00 +24°C° 0.2 mm 3 mps 746 mmHg 66%
11:00 +26°C° 0.2 mm 3 mps 745 mmHg 61%
12:00 +27°C° 0.2 mm 3 mps 745 mmHg 59%
13:00 +27°C° 0.2 mm 3 mps 745 mmHg 58%
14:00 +28°C° 0.2 mm 3 mps 745 mmHg 56%
15:00 +28°C° 0 mm 3 mps 744 mmHg 57%
16:00 +28°C° 0 mm 4 mps 744 mmHg 58%
17:00 +28°C° 0 mm 4 mps 743 mmHg 59%
18:00 +26°C° 0.3 mm 4 mps 743 mmHg 68%
19:00 +23°C° 0.3 mm 4 mps 743 mmHg 78%
20:00 +20°C° 0.3 mm 4 mps 743 mmHg 87%
21:00 +20°C° 0.2 mm 4 mps 743 mmHg 87%
22:00 +20°C° 0.2 mm 4 mps 742 mmHg 86%
23:00 +20°C° 0.2 mm 4 mps 742 mmHg 85%

6 August, Friday

Time Temperature Precipitation Wind Pressure Humidity
00:00 +20°C° 0.2 mm 4 mps 742 mmHg 85%
01:00 +19°C° 0.2 mm 4 mps 742 mmHg 85%
02:00 +19°C° 0.2 mm 4 mps 741 mmHg 84%
03:00 +19°C° 0 mm 3 mps 741 mmHg 85%
04:00 +19°C° 0 mm 3 mps 741 mmHg 86%
05:00 +19°C° 0 mm 3 mps 740 mmHg 86%
06:00 +20°C° 0.2 mm 3 mps 741 mmHg 84%
07:00 +21°C° 0.2 mm 4 mps 741 mmHg 81%
08:00 +23°C° 0.2 mm 4 mps 741 mmHg 79%
09:00 +25°C° 0 mm 4 mps 741 mmHg 71%
10:00 +27°C° 0 mm 4 mps 741 mmHg 63%
11:00 +29°C° 0 mm 4 mps 741 mmHg 55%
12:00 +28°C° 0.6 mm 4 mps 741 mmHg 59%
13:00 +28°C° 0.6 mm 4 mps 741 mmHg 63%
14:00 +27°C° 0.6 mm 4 mps 741 mmHg 67%
15:00 +25°C° 3.3 mm 5 mps 741 mmHg 74%
16:00 +22°C° 3.3 mm 6 mps 741 mmHg 81%
17:00 +20°C° 3.3 mm 8 mps 741 mmHg 88%
18:00 +20°C° 2 mm 6 mps 741 mmHg 89%
19:00 +19°C° 2 mm 4 mps 741 mmHg 90%
20:00 +20°C° 2 mm 1 mps 742 mmHg 91%
21:00 +19°C° 0.2 mm 2 mps 742 mmHg 91%
22:00 +19°C° 0.2 mm 2 mps 742 mmHg 92%
23:00 +19°C° 0.2 mm 2 mps 743 mmHg 93%

7 August, Saturday

Time Temperature Precipitation Wind Pressure Humidity
00:00 +19°C° 0.5 mm 2 mps 743 mmHg 94%
01:00 +19°C° 0.5 mm 2 mps 743 mmHg 94%
02:00 +18°C° 0.5 mm 2 mps 743 mmHg 95%
03:00 +18°C° 0.1 mm 2 mps 743 mmHg 95%
04:00 +19°C° 0.1 mm 1 mps 743 mmHg 94%
05:00 +19°C° 0.1 mm 1 mps 743 mmHg 94%
06:00 +20°C° 0 mm 1 mps 744 mmHg 91%
07:00 +21°C° 0 mm 1 mps 744 mmHg 88%
08:00 +21°C° 0 mm 1 mps 744 mmHg 85%
09:00 +22°C° 0 mm 1 mps 745 mmHg 81%
10:00 +23°C° 0 mm 2 mps 745 mmHg 76%
11:00 +24°C° 0 mm 2 mps 745 mmHg 71%
12:00 +25°C° 0 mm 2 mps 745 mmHg 68%
13:00 +25°C° 0 mm 2 mps 745 mmHg 66%
14:00 +25°C° 0 mm 3 mps 745 mmHg 64%
15:00 +25°C° 0.1 mm 3 mps 745 mmHg 67%
16:00 +24°C° 0.1 mm 3 mps 745 mmHg 71%
17:00 +24°C° 0.1 mm 3 mps 745 mmHg 74%
18:00 +23°C° 0.2 mm 2 mps 745 mmHg 80%
19:00 +21°C° 0.2 mm 2 mps 745 mmHg 86%
20:00 +19°C° 0.2 mm 2 mps 746 mmHg 93%
21:00 +19°C° 0 mm 2 mps 746 mmHg 94%
22:00 +19°C° 0 mm 2 mps 746 mmHg 95%
23:00 +19°C° 0 mm 2 mps 746 mmHg 96%
Show more